FENGYUN 1C DEB, 30120

Orbit data source: Space-Track

FENGYUN 1C DEB, 30120 is space debris in SSO originally from a launch on Mon, 10 May 1999 UTC launched from the Taiyaun Space Center, China (TSC). Fengyun 1C debris stems from the Chinese weather satellite Fengyun-1C, which was intentionally destroyed by a Chinese anti-satellite missile in 2007. This event dramatically increased the amount of space debris, with thousands of trackable fragments posing hazards to satellites and human spaceflight. The Fengyun 1C debris cloud has become a focal point in discussions about space sustainability and the need for international regulations to prevent the creation of new debris.

Loading next visibility...
Identifier
30120, 1999-025RZ
Orbit
SSO
Country
Flag of CNCN / PRC
Related business
Manufacturer
Unknown
Mission
Spacecraft
Bus & Motor
Unknown
Mass
Unknown
Launch date (UTC)
1999-05-10 (27 years ago)
Launch vehicle
Unknown
Launch site
Taiyaun Space Center, China (TSC)
Object type
Payload
Rocket body
Debris
Shape & HBR
Unknown shape, 0.1 m
Radar Cross Section
Small (<0.1 m²)

Expand to show TLE details & history
Last TLE update: 7 hours ago

TLE from 7 hours ago
0 FENGYUN 1C DEB
1 30120U 99025RZ  26071.21597720  .00003424  00000-0  13600-2 0  9995
2 30120  98.8423 159.2911 0059786 311.5663 102.6913 14.28437214986483
Epoch: 2026-03-12T05:11Z
TLE epoch observation values (Epoch: 2026-03-12T05:11:00.430Z)
Latitude
54.06738°
Longitude
-100.6578°
Altitude
815.489 km
Speed
7.446 km/s
True Right ascension
09h 47m 51s
True Declination
53° 54' 18"
Sunlit
Object was in full shadow at epoch
Visualization orbit readout
Latitude
Unknown
Longitude
Unknown
Altitude
Unknown
Speed
Unknown
Apparent Right ascension
Unknown
Apparent Declination
Unknown
Sunlit
N/A
Visualization observer readout
Local Sidereal Time
16:23:18
Azimuth
Unknown
Elevation
Unknown
Doppler factor
Unknown
Orbital elements
Apogee altitude
836.993 km
Perigee altitude
751.233 km
Semi-major axis
7,172.25 km
Eccentricity
0.00598
Inclination
98.8423°
RAAN
159.2911°
Arg. of periapsis
311.5663°
True anomaly
103.35855°
Mean anomaly
102.6913°
Eccentric anomaly
103.02504°
Mean motion
3.57322 °/min
Orbital period
100.75 mins
BSTAR
0.00136
Loading maneuver chart data...
Computing Atmospheric mass density...
Loading historical data...
Loading historical data...
Loading historical data...
Loading historical data...
Loading historical data...
Loading historical data...
Loading historical data...

Documentation

Showing up to 5 results
|